| time (UTC) | temp F | wind direction | speed MPH | gust MPH | rain 1hr in | rain 24hr in | rain mn in | humidity % | barometer mb |
| 20260505230059 | 69 | 248 | 4.0 | 11.0 | 0.00 | 0.00 | 0.00 | 58 | 1006.9 |
| 20260505224556 | 69 | 225 | 5.0 | 9.0 | 0.00 | 0.00 | 0.00 | 58 | 1007.1 |
| 20260505223103 | 69 | 188 | 6.0 | 16.0 | 0.00 | 0.00 | 0.00 | 57 | 1007.4 |
| 20260505221616 | 69 | 209 | 5.0 | 10.0 | 0.00 | 0.00 | 0.00 | 57 | 1007.3 |
| 20260505220138 | 70 | 193 | 6.0 | 12.0 | 0.00 | 0.00 | 0.00 | 56 | 1007.3 |
| 20260505214617 | 70 | 196 | 5.0 | 11.0 | 0.00 | 0.00 | 0.00 | 56 | 1007.6 |
| 20260505213100 | 70 | 267 | 4.0 | 17.0 | 0.00 | 0.00 | 0.00 | 56 | 1007.6 |
| 20260505211611 | 70 | 277 | 6.0 | 16.0 | 0.00 | 0.00 | 0.00 | 56 | 1007.9 |
| 20260505210053 | 70 | 211 | 7.0 | 18.0 | 0.00 | 0.00 | 0.00 | 55 | 1007.6 |
| 20260505204555 | 70 | 206 | 7.0 | 20.0 | 0.00 | 0.00 | 0.00 | 55 | 1007.6 |
| 20260505203104 | 71 | 196 | 5.0 | 16.0 | 0.00 | 0.00 | 0.00 | 55 | 1007.6 |
| 20260505201608 | 71 | 231 | 8.0 | 18.0 | 0.00 | 0.00 | 0.00 | 55 | 1007.9 |
| 20260505200103 | 72 | 277 | 5.0 | 17.0 | 0.00 | 0.00 | 0.00 | 56 | 1008.1 |
| 20260505194603 | 71 | 186 | 6.0 | 17.0 | 0.00 | 0.00 | 0.00 | 56 | 1008.2 |
| 20260505193052 | 70 | 226 | 9.0 | 16.0 | 0.00 | 0.00 | 0.00 | 55 | 1008.6 |
| 20260505191553 | 71 | 198 | 7.0 | 19.0 | 0.00 | 0.00 | 0.00 | 56 | 1008.8 |
| 20260505190100 | 70 | 226 | 6.0 | 14.0 | 0.00 | 0.00 | 0.00 | 56 | 1009.1 |
| 20260505184552 | 70 | 276 | 7.0 | 21.0 | 0.00 | 0.00 | 0.00 | 56 | 1009.2 |
| 20260505183052 | 70 | 205 | 9.0 | 20.0 | 0.00 | 0.00 | 0.00 | 56 | 1009.3 |
| 20260505181552 | 70 | 254 | 6.0 | 22.0 | 0.00 | 0.00 | 0.00 | 57 | 1009.5 |
| 20260505180054 | 70 | 256 | 5.0 | 19.0 | 0.00 | 0.00 | 0.00 | 58 | 1009.4 |
| 20260505174552 | 70 | 274 | 7.0 | 17.0 | 0.00 | 0.00 | 0.00 | 58 | 1009.6 |
| 20260505173053 | 70 | 219 | 6.0 | 16.0 | 0.00 | 0.00 | 0.00 | 62 | 1009.7 |
| 20260505171549 | 70 | 225 | 3.0 | 11.0 | 0.00 | 0.00 | 0.00 | 64 | 1009.8 |
| 20260505170052 | 69 | 239 | 4.0 | 12.0 | 0.00 | 0.00 | 0.00 | 63 | 1009.9 |
| 20260505164611 | 69 | 205 | 4.0 | 14.0 | 0.00 | 0.00 | 0.00 | 64 | 1010.0 |
| 20260505163054 | 69 | 197 | 9.0 | 16.0 | 0.00 | 0.00 | 0.00 | 62 | 1010.2 |
| 20260505161558 | 69 | 204 | 8.0 | 17.0 | 0.00 | 0.00 | 0.00 | 62 | 1010.0 |
| 20260505160107 | 69 | 196 | 5.0 | 13.0 | 0.00 | 0.00 | 0.00 | 64 | 1009.9 |
| 20260505153053 | 68 | 190 | 5.0 | 12.0 | 0.00 | 0.01 | 0.00 | 63 | 1009.9 |
| 20260505151606 | 67 | 240 | 6.0 | 15.0 | 0.00 | 0.01 | 0.00 | 63 | 1009.9 |
| 20260505124559 | 61 | 198 | 5.0 | 9.0 | 0.00 | 0.04 | 0.00 | 70 | 1009.9 |
| 20260505123053 | 61 | 197 | 3.0 | 8.0 | 0.00 | 0.04 | 0.00 | 71 | 1009.9 |
| 20260505121553 | 61 | 199 | 4.0 | 11.0 | 0.00 | 0.04 | 0.00 | 71 | 1010.0 |
| 20260505120112 | 60 | 242 | 5.0 | 11.0 | 0.00 | 0.04 | 0.00 | 71 | 1009.9 |
| 20260505114554 | 60 | 250 | 3.0 | 10.0 | 0.00 | 0.07 | 0.00 | 72 | 1009.8 |
| 20260505113058 | 60 | 194 | 3.0 | 9.0 | 0.00 | 0.07 | 0.00 | 72 | 1009.8 |
| 20260505111558 | 60 | 221 | 3.0 | 8.0 | 0.00 | 0.07 | 0.00 | 72 | 1009.6 |
| 20260505110107 | 59 | 204 | 3.0 | 7.0 | 0.00 | 0.07 | 0.00 | 72 | 1009.2 |
| 20260505101555 | 59 | 219 | 3.0 | 7.0 | 0.00 | 0.08 | 0.00 | 74 | 1008.7 |
| 20260505100055 | 60 | 240 | 3.0 | 11.0 | 0.00 | 0.08 | 0.00 | 72 | 1008.7 |
| 20260505094557 | 60 | 203 | 4.0 | 12.0 | 0.00 | 0.08 | 0.00 | 72 | 1008.7 |
| 20260505093104 | 60 | 253 | 4.0 | 11.0 | 0.00 | 0.08 | 0.00 | 72 | 1008.7 |
| 20260505091606 | 60 | 198 | 4.0 | 9.0 | 0.00 | 0.08 | 0.00 | 72 | 1008.4 |
| 20260505090056 | 60 | 252 | 3.0 | 9.0 | 0.00 | 0.08 | 0.00 | 72 | 1008.2 |
| 20260505084551 | 61 | 259 | 6.0 | 12.0 | 0.00 | 0.08 | 0.00 | 71 | 1008.2 |
| 20260505083053 | 61 | 238 | 3.0 | 12.0 | 0.00 | 0.08 | 0.00 | 72 | 1008.2 |
| 20260505081555 | 61 | 221 | 4.0 | 12.0 | 0.00 | 0.08 | 0.00 | 71 | 1008.2 |
| 20260505074554 | 62 | 231 | 5.0 | 13.0 | 0.00 | 0.08 | 0.00 | 72 | 1008.1 |
| 20260505073100 | 62 | 213 | 5.0 | 11.0 | 0.00 | 0.08 | 0.00 | 71 | 1008.1 |
| 20260505071555 | 62 | 236 | 5.0 | 13.0 | 0.00 | 0.08 | 0.00 | 71 | 1008.1 |
| 20260505070056 | 62 | 225 | 4.0 | 14.0 | 0.00 | 0.08 | 0.00 | 72 | 1008.2 |
| 20260505064553 | 62 | 207 | 5.0 | 12.0 | 0.00 | 0.08 | 0.00 | 72 | 1008.1 |
| 20260505063112 | 62 | 205 | 4.0 | 11.0 | 0.00 | 0.08 | 0.00 | 73 | 1008.2 |
| 20260505061556 | 62 | 239 | 4.0 | 9.0 | 0.00 | 0.08 | 0.00 | 73 | 1008.2 |
| 20260505060057 | 62 | 209 | 3.0 | 10.0 | 0.00 | 0.08 | 0.00 | 73 | 1008.5 |
| 20260505054608 | 62 | 234 | 3.0 | 8.0 | 0.00 | 0.08 | 0.00 | 73 | 1008.5 |
| 20260505053100 | 62 | 209 | 4.0 | 11.0 | 0.00 | 0.08 | 0.00 | 73 | 1008.6 |
| 20260505051553 | 63 | 274 | 3.0 | 10.0 | 0.00 | 0.08 | 0.00 | 72 | 1008.5 |
| 20260505041558 | 63 | 227 | 3.0 | 9.0 | 0.00 | 0.08 | 0.00 | 71 | 1007.8 |
| 20260505040058 | 64 | 243 | 3.0 | 7.0 | 0.00 | 0.08 | 0.00 | 71 | 1007.7 |
| 20260505034549 | 63 | 215 | 2.0 | 7.0 | 0.00 | 0.08 | 0.08 | 72 | 1007.5 |
| 20260505033054 | 63 | 242 | 2.0 | 7.0 | 0.00 | 0.08 | 0.08 | 72 | 1007.6 |
| 20260505031604 | 64 | 250 | 2.0 | 5.0 | 0.00 | 0.08 | 0.08 | 71 | 1007.5 |
| 20260505030053 | 64 | 257 | 1.0 | 3.0 | 0.00 | 0.08 | 0.08 | 71 | 1007.3 |
| 20260505024603 | 64 | 218 | 1.0 | 4.0 | 0.00 | 0.08 | 0.08 | 70 | 1007.2 |
| 20260505023051 | 65 | 0 | 1.0 | 3.0 | 0.00 | 0.08 | 0.08 | 69 | 1007.1 |
| 20260505021555 | 65 | 228 | 1.0 | 4.0 | 0.00 | 0.08 | 0.08 | 68 | 1007.1 |
| 20260505020053 | 66 | 215 | 1.0 | 4.0 | 0.00 | 0.08 | 0.08 | 66 | 1007.1 |
| 20260505014606 | 66 | 222 | 1.0 | 3.0 | 0.00 | 0.08 | 0.08 | 64 | 1007.0 |
| 20260505013054 | 67 | 222 | 1.0 | 3.0 | 0.00 | 0.08 | 0.08 | 61 | 1006.8 |
| 20260505011602 | 67 | 239 | 1.0 | 2.0 | 0.00 | 0.08 | 0.08 | 59 | 1006.8 |
| 20260505010052 | 68 | 0 | 0.0 | 3.0 | 0.00 | 0.08 | 0.08 | 56 | 1006.7 |
| 20260505004552 | 70 | 215 | 1.0 | 4.0 | 0.00 | 0.08 | 0.08 | 54 | 1006.9 |
| 20260505003054 | 71 | 194 | 2.0 | 5.0 | 0.00 | 0.08 | 0.08 | 50 | 1006.8 |
| 20260505001551 | 72 | 235 | 3.0 | 8.0 | 0.00 | 0.08 | 0.08 | 49 | 1007.0 |
| 20260505000110 | 72 | 230 | 2.0 | 8.0 | 0.00 | 0.08 | 0.08 | 49 | 1007.1 |
| 20260504234553 | 73 | 231 | 3.0 | 12.0 | 0.00 | 0.08 | 0.08 | 48 | 1006.9 |
| 20260504233106 | 74 | 265 | 2.0 | 10.0 | 0.00 | 0.08 | 0.08 | 48 | 1007.0 |
| 20260504231558 | 75 | 235 | 5.0 | 14.0 | 0.00 | 0.08 | 0.08 | 46 | 1006.9 |